Location: ????????
(55.6333°N, 37.7000°E)
Time: 13:25:21
(UTC+00:00)

Cosmos 1328 Rocket - Pass Details

Date: 19 May 2025
Orbit: 596 x 618 km, 82.5° (Epoch: 21 June)

Event Time Altitude Azimuth Distance (km) Brightness Sun altitude
Exits shadow 21:46:22 23° 169° (S) 1,294 4.6 -14.3°
Maximum altitude 21:48:54 59° 97° (E) 701 3.8 -14.2°
Drops below altitude 10° 21:53:11 10° 18° (NNE) 1,967 7.5 -14.2°
Sets 21:55:26 0° 15° (NNE) 2,879 8.9 -14.1°
